Wind_Speed
3 3 2 3 3 3 3 5 5 4 5 5 5 4 3 3 3 3 2 4 2 6 3 4 9 6 6 6 6 6 7 9 9 8 8 7 7 7 8 8 8 7 8 11 13 15 19 23 25 24 26 28 29 32 33 34 35 35 36 38 38 38 37 37 36 35 33 31 30 30 30 30 33 38 39 40 41 41 40 38 38 37 36 35 35 33
4 3 4 2 1 2 4 6 6 4 5 6 4 4 2 2 3 3 0 4 3 4 2 5 8 6 5 5 5 6 8 8 8 7 8 8 7 6 7 8 7 6 7 11 14 16 19 23 25 25 26 29 30 32 33 33 33 33 35 36 37 37 37 38 37 35 33 29 26 25 25 26 30 35 38 40 40 41 40 39 39 38 36 35 35 34
2 2 4 1 1 2 4 5 6 4 4 4 3 4 1 2 2 2 2 5 5 4 4 6 5 4 4 5 6 6 7 7 6 7 7 7 7 6 6 7 7 8 8 11 14 16 18 21 24 25 26 27 28 30 32 33 33 34 35 35 35 37 37 37 36 35 33 30 27 26 26 28 32 34 37 39 39 40 40 40 40 39 37 37 36 33
2 3 3 1 3 5 5 4 6 5 3 3 3 3 2 2 1 1 2 4 4 3 5 7 4 2 3 4 5 6 6 6 7 8 8 7 7 6 6 7 7 8 9 9 12 15 17 19 22 25 25 26 28 31 32 33 34 34 33 33 34 36 37 37 36 35 35 33 31 30 30 32 34 36 37 39 40 41 41 41 42 40 39 39 38 35
1 2 1 2 3 5 5 4 5 4 1 1 2 4 3 2 3 2 0 2 4 5 6 8 2 1 4 4 3 4 5 6 6 6 7 6 6 6 6 7 7 7 8 8 9 12 15 17 19 22 24 26 29 30 30 30 32 32 31 31 32 34 36 38 37 36 37 37 36 36 37 37 39 41 42 42 42 43 43 42 43 41 41 41 39 37
1 1 1 4 3 5 6 4 2 3 2 1 2 4 5 5 5 2 2 2 4 3 3 6 1 2 3 5 4 4 4 4 5 5 6 5 5 5 6 6 6 6 6 7 8 10 12 14 16 20 25 27 27 27 26 27 29 30 32 32 33 34 36 38 38 37 38 40 41 41 41 39 40 41 40 38 37 39 41 41 41 41 41 41 40 39
2 3 2 4 4 6 6 3 2 1 5 0 2 3 4 5 4 3 4 3 1 2 3 4 2 3 1 3 5 5 4 4 4 5 5 4 4 5 5 5 5 5 5 6 7 9 11 13 15 18 23 25 24 23 24 26 28 30 33 35 35 35 36 37 38 38 38 39 41 41 39 36 33 33 34 33 33 36 38 39 39 40 40 41 41 40
3 5 6 5 5 5 4 3 1 1 5 2 1 4 4 5 5 4 4 3 2 1 1 2 3 1 3 2 4 6 5 3 3 3 3 3 4 4 4 4 4 4 5 4 6 9 11 12 14 15 19 22 22 22 23 26 28 30 32 35 36 36 36 36 37 38 39 39 39 39 40 37 32 29 31 33 34 36 37 39 39 39 39 40 40 40
3 5 5 4 5 4 2 1 1 1 4 1 1 4 4 4 4 3 4 3 0 2 2 3 2 1 4 1 3 5 4 2 3 2 1 2 3 3 3 4 4 4 4 5 6 7 9 11 12 14 16 19 21 22 24 25 27 29 32 34 35 36 36 36 36 37 37 38 38 39 40 38 35 32 32 34 36 37 38 39 39 38 39 39 39 39
2 1 1 2 4 2 1 2 2 1 2 1 3 4 4 4 4 4 4 3 2 1 3 5 4 2 4 2 3 4 4 3 4 4 2 2 3 2 3 3 3 3 3 5 5 6 8 9 11 13 15 18 19 21 23 25 27 30 32 33 34 35 35 35 35 36 36 37 37 38 38 37 37 37 37 37 38 39 39 39 39 39 39 38 38 38
1 2 0 3 2 1 2 3 2 2 1 2 4 4 5 5 4 4 2 4 3 2 4 3 4 3 2 2 2 2 1 2 5 4 3 4 4 3 3 3 2 2 3 4 4 5 7 9 11 13 14 16 17 20 23 26 28 30 31 32 32 33 33 34 34 35 35 36 36 36 36 36 36 36 37 39 39 39 39 40 39 39 38 38 38 37
4 4 2 2 2 1 1 1 1 1 1 3 3 4 4 4 4 4 4 3 2 5 4 4 2 2 3 3 2 2 1 2 3 5 6 6 5 4 3 3 2 2 2 3 3 5 6 8 10 13 14 16 18 20 23 25 27 28 30 31 31 32 32 32 33 34 34 35 35 35 34 34 34 34 35 36 37 37 37 38 38 38 38 38 38 37
3 2 3 3 2 4 3 1 1 4 4 4 4 5 4 1 2 2 2 0 3 5 3 3 2 1 3 2 2 3 2 2 2 4 6 7 6 4 4 3 3 2 2 3 3 4 6 7 9 11 12 14 18 20 21 23 25 26 28 29 30 31 31 31 31 32 33 33 33 33 33 33 32 33 33 33 33 34 34 35 36 37 37 37 37 38
1 3 5 5 3 4 4 2 1 1 2 3 4 4 4 2 1 2 2 0 4 3 2 4 2 1 2 0 2 2 3 2 3 4 4 5 6 5 4 4 4 3 2 3 3 4 6 6 7 8 9 12 15 17 19 20 23 24 25 27 28 29 29 29 30 31 31 32 32 32 32 32 32 32 32 31 31 32 32 32 32 33 34 34 35 35
2 2 3 3 2 4 4 2 2 2 2 1 3 5 4 4 3 4 3 2 3 2 3 4 1 3 2 1 2 0 2 2 3 4 4 5 4 4 4 4 4 3 2 2 3 4 5 6 6 7 8 10 12 15 17 18 21 22 23 25 26 27 28 28 29 29 30 30 30 30 30 30 31 31 31 30 30 30 31 31 30 30 31 31 31 31
2 3 3 2 2 3 3 2 1 2 1 0 2 4 2 3 3 3 3 4 3 1 3 2 2 2 2 1 2 2 2 2 3 4 4 4 4 4 4 4 4 3 2 2 2 3 4 5 5 6 7 9 10 13 16 17 18 20 21 22 24 25 26 27 27 28 28 29 29 29 29 29 29 30 30 30 30 30 30 30 30 29 30 29 29 29
2 2 3 3 2 2 2 2 2 2 1 1 2 2 2 2 6 5 1 1 3 1 2 2 2 2 1 1 2 3 3 3 4 4 4 5 5 4 4 3 3 3 3 3 2 3 3 3 5 5 6 8 9 11 13 15 16 18 19 20 22 23 24 25 26 26 27 28 28 28 28 28 28 29 29 29 29 30 29 29 29 29 29 29 29 29
3 1 3 3 0 1 1 1 2 2 2 3 1 3 1 2 4 4 0 2 2 2 2 1 2 2 1 1 1 2 5 6 6 5 4 5 5 4 4 4 4 4 3 3 4 3 2 3 3 4 5 6 7 8 11 12 13 16 17 18 20 21 23 24 24 25 26 26 27 28 28 28 28 28 28 28 29 29 29 29 29 29 29 29 29 29
3 2 4 2 1 4 5 3 1 3 2 3 2 1 3 3 1 2 2 1 1 2 3 3 3 2 4 3 2 5 8 8 6 6 5 5 6 5 4 4 4 4 4 4 4 4 3 2 2 3 4 5 6 7 9 11 12 14 16 17 18 19 21 22 22 23 24 25 25 26 26 27 27 27 28 28 29 29 29 29 29 29 29 29 29 29
2 3 3 3 1 3 5 3 1 3 4 2 2 3 2 3 3 2 2 2 2 2 2 3 4 3 4 3 5 7 8 7 6 6 6 7 6 5 4 4 5 4 4 4 4 4 4 3 2 2 3 3 5 6 7 10 11 12 14 16 17 18 19 20 21 22 23 23 23 24 25 26 26 27 27 28 28 29 29 29 29 29 29 28 28 28
3 4 2 4 4 2 2 1 2 2 1 2 2 1 1 1 1 1 0 2 3 3 2 1 4 5 3 1 3 5 4 6 7 6 6 6 6 6 5 5 5 5 5 4 4 6 6 5 3 1 1 2 3 5 6 8 10 11 12 15 16 17 18 20 21 21 22 22 23 24 25 25 25 26 26 27 28 28 28 28 28 29 28 28 27 27
1 3 3 1 2 1 1 1 1 2 2 2 2 2 3 2 3 2 2 2 2 2 3 3 4 6 3 0 1 2 2 4 6 6 5 5 6 6 5 5 5 5 5 4 6 8 8 7 5 3 1 1 3 4 5 7 9 10 11 13 16 17 18 19 21 21 22 22 23 23 25 25 26 26 26 27 27 27 28 27 28 28 28 28 28 27
2 4 4 1 2 2 3 2 1 0 1 3 2 1 2 2 4 5 4 3 1 1 1 3 2 6 3 1 1 1 3 3 5 6 5 5 6 6 5 5 5 5 4 5 8 10 10 9 7 5 3 1 1 2 4 5 8 10 10 11 14 16 17 18 20 21 21 22 23 23 25 26 26 26 27 28 28 28 28 27 27 26 27 27 27 27
2 3 4 1 4 3 4 3 2 3 3 2 0 1 2 1 3 5 5 3 3 3 2 2 3 6 4 2 2 3 3 3 5 6 6 5 4 5 5 5 5 4 4 6 9 10 10 10 8 7 5 2 1 2 3 5 7 9 9 10 12 14 15 16 18 19 20 22 22 23 24 25 26 26 26 28 28 28 28 27 27 26 25 25 26 26
1 1 4 3 3 5 5 5 4 3 1 2 2 1 1 2 5 4 2 3 1 4 6 4 5 6 3 3 2 2 1 3 5 4 5 5 4 5 5 4 4 4 4 5 7 9 10 10 10 9 7 4 1 0 2 4 6 7 8 9 11 13 14 15 17 18 19 20 21 22 23 24 25 25 26 26 27 28 28 28 27 26 25 24 24 24
2 1 3 5 3 3 2 2 4 3 2 1 1 2 2 3 6 3 2 3 3 4 5 5 5 4 4 4 2 2 2 3 4 3 4 4 4 5 4 4 4 4 5 6 6 7 10 11 11 11 9 7 4 1 0 2 3 5 7 8 9 11 13 14 15 17 18 19 20 21 22 23 24 24 25 25 26 27 27 27 27 26 25 24 24 24
4 2 2 6 6 5 5 5 3 1 2 2 2 4 3 2 4 5 4 4 5 3 3 6 5 1 5 5 4 5 5 5 5 4 5 5 4 4 4 4 5 5 5 6 6 7 8 10 12 12 11 9 7 4 2 1 1 3 5 6 8 10 12 13 15 17 18 18 20 20 21 22 22 23 23 24 25 26 26 26 26 25 25 24 23 24
5 1 1 5 4 3 5 4 2 1 2 4 4 5 5 3 4 5 5 5 5 5 4 8 5 4 6 7 8 8 6 6 6 6 7 6 5 4 4 4 5 6 5 5 6 7 8 9 12 13 13 12 10 7 5 3 2 3 5 6 7 9 12 13 15 17 17 18 20 20 21 21 22 22 23 23 24 25 25 25 25 24 24 24 23 23
6 2 2 4 2 2 2 2 3 1 1 2 2 5 6 5 7 8 8 6 6 6 6 4 6 7 7 6 8 9 8 8 8 7 5 3 3 3 3 4 6 7 6 7 8 8 8 10 12 14 15 14 12 10 8 5 4 3 5 6 8 10 12 13 15 17 18 19 20 20 21 21 22 22 22 23 24 25 25 25 24 24 24 23 23 23
4 2 2 3 2 2 3 5 3 3 2 2 3 5 6 6 8 7 6 5 6 6 4 5 5 9 8 7 8 8 7 7 5 2 2 3 4 5 5 6 7 7 7 8 9 9 9 11 13 14 16 16 15 14 11 8 6 4 5 6 8 10 12 14 15 17 18 19 20 20 21 21 21 22 22 23 24 24 24 24 24 24 23 23 23 23
2 2 1 3 2 4 5 4 3 4 2 3 5 6 5 4 5 6 5 3 4 6 5 5 4 10 7 8 8 6 5 4 3 4 5 6 6 5 6 6 7 7 8 8 9 7 9 12 14 15 17 18 17 16 13 11 8 6 5 6 8 10 12 13 15 17 18 19 20 20 21 21 21 21 22 23 23 24 24 24 24 23 23 23 23 23
3 3 1 4 2 4 4 4 4 5 3 4 9 10 10 7 5 5 5 5 7 5 3 4 4 8 4 5 5 3 4 5 6 7 7 6 6 6 7 7 8 8 8 8 8 6 8 12 15 17 19 19 19 17 15 13 9 7 6 6 8 10 12 14 15 17 18 18 19 19 20 20 21 21 22 22 23 23 23 23 23 23 23 23 23 23
3 4 2 3 2 5 3 3 3 5 4 5 9 10 13 12 8 4 4 7 9 7 6 5 6 5 2 5 5 4 5 6 7 7 6 6 6 7 7 8 8 8 8 7 7 7 9 13 16 19 20 20 19 18 16 13 11 8 7 7 8 10 12 14 16 17 18 18 19 19 19 19 20 20 21 22 22 23 23 23 23 22 23 23 23 23
2 5 3 3 2 3 5 4 2 2 2 6 5 5 8 11 11 11 8 8 10 8 4 4 3 2 4 6 7 7 7 6 6 7 6 5 6 6 7 8 8 8 7 6 7 9 11 14 16 18 19 19 19 17 15 13 11 9 7 8 9 11 12 14 16 17 18 18 18 18 18 18 19 19 20 21 22 22 22 23 23 22 22 23 23 24
4 5 2 2 4 2 3 4 2 4 7 6 3 2 3 3 7 11 8 6 10 11 9 7 5 5 7 7 6 7 7 6 4 5 6 6 6 6 6 7 8 7 6 6 7 10 13 13 15 16 18 18 18 17 15 14 12 9 8 9 10 11 13 15 16 17 17 17 17 17 17 17 18 18 19 20 21 22 22 22 22 22 23 23 24 24
6 5 3 2 2 2 1 3 3 7 8 3 1 2 2 3 3 3 6 9 12 14 13 12 10 7 7 6 5 4 4 4 3 4 7 8 7 7 7 7 7 7 8 8 9 12 13 13 15 16 17 17 17 17 16 14 12 9 9 9 10 12 13 15 16 16 16 17 17 17 16 17 17 18 19 20 20 22 22 22 22 22 23 23 24 23
5 4 3 2 1 3 2 2 3 6 7 3 1 3 4 4 5 5 2 7 11 13 14 13 12 9 7 5 4 3 1 2 4 5 7 8 7 8 9 9 8 8 9 9 10 11 11 12 13 14 15 16 16 17 16 14 11 10 9 10 11 12 13 15 16 15 15 16 16 16 16 16 17 18 19 19 20 21 21 22 22 22 22 23 24 23
2 2 3 3 2 3 4 1 3 4 5 5 4 4 4 4 6 5 1 4 7 11 15 14 12 9 7 5 4 3 2 1 4 5 4 5 6 8 10 11 11 10 10 9 9 10 10 11 12 13 14 14 16 16 15 13 11 10 10 11 12 12 14 16 15 15 15 16 16 16 16 16 17 18 18 19 19 20 21 21 22 22 22 23 23 24
5 3 3 4 1 2 4 2 2 3 5 6 5 4 3 3 4 4 4 5 6 6 11 12 10 9 7 7 6 5 4 1 5 5 4 5 7 8 9 11 13 12 11 10 10 11 11 10 11 11 13 15 16 16 15 13 12 11 11 12 12 13 15 16 15 14 15 15 15 15 16 16 17 17 18 18 19 19 20 21 21 21 22 23 23 24
5 5 3 3 2 3 4 2 3 5 5 4 4 4 2 2 4 6 3 7 6 3 7 10 9 8 7 8 7 6 5 5 5 4 5 5 6 9 11 11 12 13 13 12 11 11 11 11 12 13 14 16 16 15 14 13 12 12 13 12 13 15 15 15 14 15 15 15 15 16 16 16 16 17 17 18 19 19 19 20 21 21 22 23 23 24
3 3 2 3 3 4 5 3 4 5 5 4 5 5 4 3 4 3 4 7 4 5 6 8 8 7 8 8 7 5 6 6 4 2 3 4 4 7 11 11 10 10 11 11 11 11 11 13 13 14 15 14 14 15 15 13 13 13 13 13 15 16 15 14 14 15 15 15 16 16 16 16 16 16 17 17 18 19 19 19 20 21 22 23 23 23
2 1 1 3 3 3 3 2 3 6 5 5 5 2 2 3 2 4 6 4 4 7 7 6 6 7 8 9 8 6 6 4 4 3 2 4 5 5 8 10 10 11 12 11 11 12 13 14 15 16 16 15 15 16 15 14 14 14 14 15 17 16 14 14 15 15 15 16 16 16 16 16 16 16 17 17 17 18 19 19 19 20 21 22 23 23
5 4 2 3 4 3 2 2 1 5 4 8 11 4 1 4 5 6 3 1 2 6 7 6 6 6 7 8 8 8 7 4 4 4 4 5 6 7 8 10 11 13 14 13 14 14 15 15 17 18 18 17 17 17 16 16 16 15 15 17 17 14 13 15 15 15 16 17 17 17 17 16 16 16 17 17 17 18 19 19 18 19 21 21 22 22
4 5 3 3 4 4 4 3 5 5 6 10 10 5 5 6 4 4 5 3 3 3 5 5 6 6 8 8 7 8 7 6 6 6 5 5 7 9 11 12 13 14 15 15 16 16 16 18 19 19 19 19 19 18 18 17 17 16 17 19 17 14 14 15 15 16 17 18 18 18 17 17 16 16 16 16 16 17 18 18 18 19 20 21 21 22
5 4 4 4 4 4 5 7 6 2 4 8 6 2 1 2 2 3 4 3 4 5 5 5 5 6 7 8 7 6 6 7 7 6 6 6 8 10 12 14 15 16 16 16 16 16 17 19 20 20 20 20 20 20 20 19 18 18 19 19 16 14 15 16 16 17 18 19 19 19 18 18 17 16 16 15 16 17 18 18 18 19 20 21 21 21
3 2 3 2 2 4 5 6 6 3 3 8 10 5 0 1 1 3 3 3 4 5 5 5 6 7 7 7 6 6 6 7 7 7 7 6 7 10 13 13 14 15 16 16 16 17 18 19 19 20 22 21 21 21 21 20 20 20 20 18 16 15 16 16 17 18 19 19 20 19 18 19 18 17 16 15 15 16 17 17 18 19 20 21 21 21
2 3 3 2 1 3 4 4 5 6 6 7 10 9 6 5 5 4 4 4 4 4 5 6 5 5 6 7 8 8 8 8 7 7 6 6 7 10 12 13 15 16 16 17 17 17 17 18 20 22 23 24 23 22 22 22 22 21 19 17 16 16 17 17 18 19 19 20 20 19 19 19 19 18 17 16 15 16 16 16 17 18 20 21 21 21
1 4 4 4 3 3 6 7 6 5 6 6 7 8 8 8 8 6 5 5 3 3 5 6 4 4 5 6 8 8 8 7 8 8 6 6 8 11 13 15 17 17 16 16 16 16 17 18 20 22 24 25 24 23 23 23 22 20 18 17 17 16 17 18 19 20 20 20 20 20 19 19 19 19 18 17 16 16 16 16 16 17 19 20 19 20
3 4 4 3 3 4 9 8 5 4 8 8 8 10 10 9 8 8 6 5 5 5 6 6 7 8 8 7 8 8 8 8 8 9 7 6 8 12 14 16 17 17 17 16 16 16 17 19 21 22 24 24 24 23 23 22 21 19 18 17 17 17 18 19 20 20 20 20 20 21 20 19 19 18 17 17 17 17 17 16 16 17 19 19 17 17
4 4 3 2 2 5 8 6 5 3 5 7 7 10 12 10 8 7 7 6 8 9 8 7 9 10 10 11 10 8 7 8 10 10 9 9 11 15 17 17 17 17 16 15 15 16 18 19 20 22 23 23 23 22 22 22 20 19 19 18 17 18 19 19 19 20 21 21 20 21 20 19 18 17 16 17 17 18 18 17 15 16 18 18 16 14
6 7 7 6 5 6 5 6 7 4 4 5 5 7 8 7 7 8 9 9 10 10 9 8 9 8 9 13 15 13 10 10 12 11 10 12 16 18 18 17 17 17 17 16 16 17 18 19 20 22 23 23 23 22 22 22 21 20 19 18 18 18 19 19 19 21 22 21 21 20 19 19 18 17 16 16 16 17 18 18 17 16 16 15 15 15
Wind_Direction
85 100 169 177 179 185 169 156 141 122 121 125 122 114 131 166 224 252 264 315 68 97 37 83 105 91 70 50 40 48 51 54 53 54 52 46 44 39 39 37 32 36 29 20 20 19 21 23 24 25 24 26 29 29 30 33 33 32 34 34 34 35 38 40 38 37 37 35 33 32 32 32 34 38 39 40 40 37 36 37 35 35 34 33 33 34
79 130 211 201 164 185 144 138 126 97 85 84 107 107 66 183 225 250 175 338 4 94 89 120 105 72 66 56 35 49 57 49 44 53 53 46 48 42 38 35 30 33 24 21 22 19 20 23 25 27 27 28 28 28 29 31 31 32 35 35 33 34 38 41 40 39 40 42 40 36 36 37 38 41 40 39 40 39 39 39 37 36 35 34 33 32
73 190 236 245 155 109 79 106 113 88 86 84 95 110 102 244 243 281 341 7 15 86 153 165 120 76 72 66 54 59 68 66 56 60 60 52 52 44 37 32 27 27 21 19 19 16 17 22 26 28 29 30 29 29 30 32 33 34 35 35 34 35 37 40 42 41 42 47 52 50 47 46 44 45 44 41 40 42 42 42 40 38 37 36 34 33
151 239 271 258 159 111 64 61 101 90 74 94 108 124 199 265 138 253 332 26 27 64 150 158 121 99 114 86 71 70 83 89 78 73 67 61 59 50 44 39 32 29 21 18 15 11 11 18 25 27 28 30 31 32 31 32 34 35 35 35 35 37 37 39 43 42 43 47 54 55 52 49 46 44 44 43 42 43 41 41 42 39 39 38 36 35
148 252 340 73 116 115 93 60 91 119 75 25 152 154 179 210 197 215 293 90 43 41 126 135 103 209 168 163 121 100 107 95 83 81 70 62 62 57 52 46 40 36 26 20 14 7 8 13 20 26 30 32 33 33 30 31 34 34 36 39 38 39 40 40 43 44 44 45 47 49 48 46 43 39 38 38 36 36 37 39 41 40 39 40 38 37
51 289 109 97 77 83 103 76 44 147 143 324 219 179 178 186 203 198 110 107 44 5 181 145 153 266 171 176 163 134 127 97 77 71 65 58 54 52 50 44 38 36 30 25 18 10 9 10 16 25 30 34 34 32 31 33 36 38 40 44 44 43 43 42 43 45 45 45 44 45 44 41 38 34 32 32 28 29 33 36 39 40 40 40 39 39
358 339 64 111 106 80 90 85 355 142 132 189 233 167 160 148 155 161 142 128 72 264 225 157 185 270 259 193 162 145 136 106 84 66 61 55 48 48 47 42 35 27 26 26 21 17 16 15 17 21 27 32 33 32 35 38 40 42 44 47 48 46 46 45 43 45 46 46 46 46 46 43 39 33 30 31 29 30 33 35 37 38 39 40 39 38
346 354 24 51 84 80 80 85 348 127 127 177 217 122 132 138 154 172 148 152 214 258 314 169 170 275 280 225 151 146 133 100 90 72 61 58 55 56 52 45 39 29 24 23 20 21 21 20 21 23 28 33 35 35 39 41 42 44 46 48 50 49 48 47 46 45 46 46 46 46 47 44 41 34 30 31 32 33 35 35 35 36 38 39 39 38
10 17 14 26 65 78 93 110 282 112 110 187 186 117 121 133 147 136 121 147 276 13 289 231 160 298 268 217 125 158 175 183 155 136 127 96 77 70 64 52 43 38 33 33 30 26 25 26 27 30 33 35 37 38 41 43 43 46 49 49 50 50 49 48 47 47 46 46 45 45 44 42 39 36 32 32 32 33 34 34 33 34 34 36 37 37
44 43 349 73 71 69 273 283 251 140 95 155 127 89 65 67 73 69 100 123 54 12 236 213 166 190 263 206 146 185 223 211 161 160 179 133 110 105 90 77 65 53 48 45 39 34 32 30 30 32 34 34 35 38 42 45 46 48 50 50 49 49 48 47 47 46 45 45 44 43 42 40 37 35 32 31 31 31 30 30 30 31 31 32 33 33
345 315 5 80 50 268 262 291 230 182 257 146 106 62 40 29 36 41 48 83 72 271 262 241 187 168 250 245 151 158 192 144 145 157 166 150 141 131 110 100 91 68 61 56 40 35 33 30 30 31 32 32 33 37 42 44 46 48 48 49 49 48 47 46 45 45 44 44 43 43 42 40 37 35 33 30 28 28 27 26 26 27 27 29 29 29
3 9 10 9 334 342 12 349 84 40 28 90 88 81 64 355 10 23 354 49 132 245 281 308 263 160 219 246 94 98 102 115 151 165 165 161 150 135 130 124 108 80 66 62 40 31 27 22 25 26 27 31 34 37 40 42 44 45 46 46 47 46 46 45 44 44 43 42 42 41 40 40 37 35 34 31 29 27 26 24 23 23 23 24 25 26
11 10 343 322 338 35 36 85 39 5 32 79 84 90 95 356 10 9 320 64 217 246 279 315 330 163 228 230 111 114 87 42 72 132 153 155 148 148 151 136 110 91 77 68 49 34 29 22 19 19 20 27 33 35 37 39 42 42 43 44 45 44 44 43 43 43 42 41 40 39 38 38 36 35 34 32 29 28 27 24 23 22 21 21 21 22
344 315 351 357 352 19 38 112 125 333 45 105 129 120 127 127 112 232 238 302 264 262 302 317 333 218 254 81 133 120 72 46 57 92 127 141 149 157 146 133 121 106 93 74 61 45 35 28 22 20 21 25 30 33 35 38 42 41 41 42 43 42 42 42 42 41 41 40 38 37 36 35 33 33 32 31 28 27 26 25 24 23 21 20 20 20
161 263 343 20 332 354 28 74 146 165 109 104 148 125 136 155 158 201 198 200 245 285 319 305 274 206 222 143 208 210 75 86 80 93 114 120 134 141 130 133 132 119 104 85 71 60 44 34 29 25 26 28 29 33 36 38 41 42 40 41 42 41 41 40 39 39 39 38 36 34 33 33 31 30 29 28 27 25 25 23 22 22 21 19 18 18
119 237 266 293 291 13 20 340 42 85 86 273 127 102 131 184 140 143 182 175 169 338 318 263 232 211 145 152 235 213 133 123 121 122 126 134 144 144 147 148 138 133 120 105 85 70 56 40 36 31 28 28 29 34 37 37 40 42 40 41 42 41 40 39 37 37 37 36 34 32 31 30 29 27 25 24 23 22 22 21 19 19 19 17 16 16
112 246 292 320 319 46 23 300 16 60 187 114 102 150 209 176 114 113 215 136 111 224 262 204 249 305 79 206 237 185 177 176 168 165 160 164 164 161 169 161 149 155 143 125 115 91 70 49 40 33 30 31 30 36 38 38 41 44 41 39 40 41 40 38 36 35 35 33 32 30 29 27 25 25 23 21 19 18 18 18 16 15 15 13 13 13
137 186 315 8 331 294 353 338 7 20 133 106 153 211 178 92 92 101 180 14 56 246 262 224 245 266 223 247 298 197 205 206 193 185 180 176 176 184 186 171 164 160 149 141 133 123 99 64 47 35 34 36 37 39 41 41 42 45 44 40 38 39 39 37 35 34 33 31 29 27 25 24 22 22 21 18 17 15 14 14 12 11 12 10 10 10
104 103 298 324 252 303 356 52 320 327 33 113 186 200 97 130 145 93 137 174 189 236 281 307 296 255 212 200 188 205 207 201 191 179 182 191 190 195 189 168 169 163 159 164 154 151 142 104 67 46 39 41 45 46 46 45 42 44 47 43 39 39 38 37 34 32 32 30 28 25 23 21 19 18 16 14 14 12 11 11 9 8 8 7 7 7
78 109 255 287 293 314 1 52 202 308 344 20 26 5 46 137 164 149 144 156 164 195 264 312 322 271 232 209 180 193 195 184 179 178 190 201 197 197 192 176 178 179 178 179 168 161 155 145 123 65 49 47 51 50 49 49 43 42 46 43 39 38 37 36 34 30 30 29 26 23 21 18 16 15 13 12 11 9 8 8 6 5 5 4 4 3
42 102 197 293 330 341 13 46 170 182 320 7 43 345 351 80 127 165 57 85 122 156 190 258 291 266 251 207 159 172 174 173 178 186 196 201 198 199 197 190 190 190 188 180 165 163 163 166 167 144 67 68 70 58 51 51 45 41 42 39 35 33 32 32 31 28 26 26 23 20 19 16 13 12 10 9 8 6 6 5 3 2 1 0 2 1
62 116 155 280 334 134 213 274 190 186 202 153 143 196 174 126 119 130 298 321 95 139 173 169 264 270 262 70 110 112 159 185 179 182 193 196 195 198 199 195 193 192 187 174 164 165 171 178 181 190 200 88 81 65 52 51 48 41 38 36 32 29 27 26 26 23 20 21 19 16 15 13 10 9 7 6 5 4 3 2 1 360 357 357 358 358
137 99 96 164 240 215 251 278 109 123 167 131 125 145 132 123 118 135 209 240 117 116 145 113 268 276 273 246 246 277 263 228 176 173 187 195 195 198 202 199 191 188 181 168 169 173 180 188 189 196 210 189 93 76 57 48 46 40 35 34 31 27 24 22 22 19 16 16 14 11 10 8 7 5 2 2 1 0 1 359 358 358 356 355 354 354
135 85 83 300 297 313 315 327 41 27 48 117 208 64 109 144 115 140 184 175 142 174 144 94 274 270 277 269 249 264 261 214 176 175 181 186 199 205 206 205 191 182 175 166 173 180 185 191 193 198 211 213 128 74 59 46 42 38 32 29 27 24 21 18 18 15 11 11 10 7 5 4 2 1 358 358 357 356 357 356 356 356 354 353 352 352
216 134 103 78 357 341 339 342 339 338 35 168 220 105 99 93 97 115 144 92 175 208 153 153 241 253 277 317 300 271 217 177 179 181 178 181 201 212 206 208 201 185 178 175 178 183 186 192 198 204 212 215 208 69 57 48 39 34 28 24 21 19 16 13 12 10 7 6 4 2 1 359 358 356 354 353 353 352 352 352 353 353 353 352 351 350
119 142 115 120 151 207 240 253 254 247 202 198 225 175 154 123 125 140 118 112 231 228 154 174 227 264 296 310 292 254 212 197 197 190 198 204 207 211 207 205 206 200 197 194 189 192 195 199 204 208 214 219 222 229 60 46 37 29 22 17 14 11 9 8 6 5 3 1 359 358 356 355 353 352 350 349 349 349 348 349 350 350 351 351 349 349
100 77 85 131 155 184 193 210 243 219 156 190 200 177 173 151 132 116 113 167 197 168 190 218 188 182 279 255 237 246 227 215 218 202 213 229 223 216 213 208 213 217 213 205 197 201 205 205 207 210 215 220 226 233 241 286 4 15 11 7 7 5 3 1 0 359 357 356 355 353 352 351 349 348 346 345 345 346 346 347 347 347 348 348 349 350
101 82 139 117 120 201 190 207 300 349 185 193 182 181 184 171 144 143 172 206 166 138 250 255 175 168 247 226 212 228 222 214 227 220 216 225 225 215 210 214 221 224 220 214 210 210 212 210 206 208 215 221 227 233 241 263 290 336 354 354 357 358 357 356 354 353 353 352 351 349 348 347 345 344 343 342 342 343 344 344 345 346 346 346 348 350
110 154 201 118 65 285 230 281 304 339 203 216 198 199 190 175 181 193 211 211 168 173 232 225 166 198 240 230 214 216 210 207 216 216 210 217 230 226 216 220 227 228 222 220 221 220 216 213 207 207 214 221 227 231 238 253 272 308 337 342 347 350 350 351 350 349 349 348 347 346 344 342 342 341 340 341 341 341 342 342 344 345 344 345 347 347
116 152 183 120 68 334 325 318 327 44 24 277 247 222 201 192 200 214 233 212 194 228 225 155 187 242 244 230 229 219 207 211 218 213 202 220 238 240 229 227 232 233 227 225 229 227 219 215 212 210 214 219 225 230 234 243 259 287 314 328 338 341 343 345 345 345 344 344 343 342 340 339 339 338 338 340 340 340 341 342 342 342 342 345 346 345
86 126 154 105 70 323 329 346 11 42 35 276 270 253 218 208 223 234 242 200 200 259 247 163 240 273 246 209 224 223 190 193 230 238 229 231 237 234 230 232 235 235 233 233 235 229 218 215 213 212 215 219 225 230 233 238 250 270 294 317 328 333 338 339 339 339 340 339 338 337 337 337 336 336 336 338 339 339 340 341 341 342 342 343 344 344
72 105 74 74 80 280 325 16 348 354 10 279 269 251 218 200 210 222 216 192 187 203 181 158 242 267 229 174 197 203 169 185 220 230 231 237 230 216 220 228 231 234 236 237 236 224 214 213 211 213 217 221 226 229 231 235 245 261 283 309 321 326 331 333 334 335 335 334 334 334 334 334 334 334 335 337 338 338 339 340 341 342 342 342 343 343
98 131 149 106 139 257 314 22 338 351 358 277 258 234 208 200 205 223 233 218 200 166 138 183 227 243 175 150 164 183 189 203 222 223 222 231 224 212 218 225 228 234 235 236 235 225 219 218 218 220 222 225 228 229 231 234 241 258 280 301 314 321 326 328 330 331 329 330 331 331 331 331 331 332 334 335 336 336 338 340 341 342 342 341 341 341
107 116 148 136 132 252 290 326 336 350 294 252 241 210 200 201 204 211 220 213 199 190 197 232 237 182 157 167 174 187 200 208 218 219 215 215 212 211 221 227 231 238 240 240 236 232 230 228 226 227 228 228 230 229 228 233 241 256 279 297 309 317 321 324 325 325 325 327 327 327 327 328 329 331 332 333 334 335 338 339 339 341 340 339 339 340
114 99 125 120 107 177 301 7 37 245 242 233 234 222 198 194 201 214 239 239 204 211 235 249 239 203 189 194 189 189 204 220 230 231 228 222 211 206 216 228 231 233 236 238 235 235 236 231 227 228 228 227 228 224 223 230 240 255 276 293 304 311 315 319 320 320 321 322 322 323 324 325 327 329 330 330 332 333 336 338 338 338 338 338 338 338
137 128 129 106 115 168 100 84 168 246 256 241 300 277 164 96 115 190 273 261 218 209 220 230 230 212 194 213 221 201 218 252 271 245 230 228 218 205 209 220 219 216 222 229 235 239 241 238 234 233 229 226 223 220 222 229 238 253 272 286 296 305 310 313 314 316 317 317 317 319 322 323 325 327 328 329 330 332 334 336 335 335 336 335 334 334
130 134 121 106 175 165 137 195 251 300 313 301 255 234 187 158 155 152 253 263 223 199 201 217 227 215 192 201 218 207 207 287 300 267 233 222 213 206 213 219 213 214 226 235 242 248 250 247 240 235 230 224 220 220 223 229 237 252 270 282 292 301 306 308 310 313 313 312 313 315 317 320 322 324 326 327 328 330 332 331 331 333 334 332 330 332
93 152 155 154 192 120 97 318 309 335 303 265 240 232 207 186 186 163 92 294 244 197 191 203 214 207 183 166 179 176 106 38 288 273 245 225 213 205 216 229 228 229 239 244 245 244 243 239 234 230 227 221 218 221 225 230 240 255 269 280 291 299 303 306 308 309 307 307 309 311 313 316 319 321 323 324 325 327 328 328 329 330 330 329 329 329
37 21 96 112 116 110 115 166 227 221 246 249 239 246 240 190 171 107 42 305 267 201 183 192 201 194 173 164 170 152 114 155 261 260 235 221 214 200 208 227 232 236 243 244 242 241 238 233 227 222 219 219 219 222 226 233 244 257 269 281 289 295 300 305 305 303 303 303 305 307 309 312 315 317 319 320 321 323 323 324 325 326 328 328 327 327
30 14 53 114 171 166 146 176 229 235 249 251 228 225 211 152 111 81 27 277 261 192 171 180 190 189 168 158 160 156 165 202 235 240 214 198 199 201 206 216 225 230 235 237 236 236 232 228 223 219 220 224 225 225 229 236 245 258 271 281 286 292 300 304 300 298 299 300 301 303 305 309 311 313 315 317 318 319 319 320 322 324 326 326 326 326
25 21 67 142 166 172 181 221 272 262 247 227 215 207 173 118 83 104 214 235 203 158 173 180 182 181 163 155 165 189 211 209 190 175 177 160 166 201 212 217 226 233 236 238 237 234 231 228 228 228 231 232 229 227 230 237 247 261 272 278 283 293 303 300 294 295 296 296 297 300 303 306 308 310 312 313 315 315 315 317 320 322 324 324 325 326
139 97 107 139 142 156 178 209 296 286 253 174 148 152 134 128 167 210 220 224 160 158 176 190 187 173 165 171 185 208 230 215 168 153 179 180 185 206 213 217 226 233 234 233 232 232 231 229 230 233 236 232 226 229 234 239 250 262 268 273 283 297 302 294 291 294 293 292 294 297 301 304 306 308 309 310 312 311 311 314 317 319 322 323 324 324
167 162 181 185 167 130 87 91 271 283 254 144 124 108 177 182 204 211 190 130 166 166 167 187 200 182 174 188 206 221 237 239 213 214 219 214 222 230 223 220 227 234 234 232 232 233 232 232 235 239 240 233 228 232 236 240 252 260 264 273 287 298 295 289 290 291 289 290 293 296 299 302 304 305 306 308 309 307 307 311 313 316 320 323 323 322
191 173 188 218 189 140 130 193 216 229 208 171 150 161 211 201 183 171 160 162 207 196 170 185 208 198 184 192 208 219 231 242 243 237 231 231 235 236 234 232 232 235 237 235 236 237 234 235 240 244 244 238 233 235 238 244 252 258 263 276 290 295 288 287 288 286 286 289 291 295 299 301 302 303 305 306 306 303 304 307 310 314 319 322 322 320
225 186 170 187 197 181 188 212 221 218 213 210 201 187 234 217 166 154 164 172 191 198 183 183 204 204 194 197 205 209 218 229 233 228 221 226 229 227 232 237 237 238 241 240 239 239 238 240 245 247 247 244 238 237 242 247 250 255 265 279 289 288 285 286 284 282 285 288 290 294 298 299 300 302 304 304 303 301 303 306 308 313 318 321 321 319
252 169 149 164 244 265 253 226 217 225 238 235 235 230 108 336 188 163 174 202 203 195 185 187 200 201 194 193 199 213 222 221 225 229 225 227 234 230 231 239 241 240 240 241 242 242 242 243 245 245 247 248 244 241 244 247 249 256 268 279 284 284 284 284 281 282 284 287 290 294 295 296 299 302 303 302 300 299 301 304 306 311 315 318 319 318
264 172 177 220 252 269 273 241 217 220 218 225 240 246 241 239 223 186 191 226 225 199 203 215 216 199 186 185 196 218 228 216 217 234 232 225 236 238 235 239 243 242 240 243 248 249 244 241 241 243 246 249 248 247 247 248 252 259 269 275 277 279 281 280 279 281 284 287 290 292 292 295 299 302 302 301 299 298 299 301 304 308 313 316 317 316
215 152 182 211 191 209 254 248 233 250 257 238 237 246 246 240 229 213 216 235 230 209 226 238 226 188 181 191 200 216 229 220 213 228 236 230 236 242 241 242 245 246 248 250 251 248 243 241 242 244 247 251 254 254 251 251 256 260 266 270 272 275 276 276 277 279 283 286 288 289 290 294 297 300 301 300 299 298 299 301 303 305 310 315 316 314
136 152 189 198 193 268 279 261 229 266 281 260 233 230 238 241 234 224 223 231 238 243 247 247 231 210 205 209 202 205 225 231 218 219 231 235 235 238 242 246 248 250 251 251 251 248 245 244 246 247 250 254 258 257 254 255 258 261 263 268 270 271 272 273 275 278 280 282 284 286 289 293 295 297 298 297 298 299 298 300 303 305 309 314 319 317
149 186 188 138 197 260 265 235 184 201 267 259 232 226 230 230 225 226 225 222 230 233 230 236 240 231 227 229 216 198 216 238 230 222 229 238 238 239 243 247 249 250 251 251 249 248 247 247 249 250 253 257 258 256 255 257 259 261 264 267 268 269 271 272 274 275 277 279 281 284 288 291 293 294 296 296 298 300 299 298 300 304 309 315 319 319
193 196 174 175 218 238 225 200 182 184 246 261 244 236 235 215 195 214 228 228 231 229 217 216 231 236 238 239 229 215 220 239 237 226 227 240 244 244 247 248 247 249 252 250 247 247 248 249 249 249 253 257 257 254 255 257 259 261 264 266 268 269 269 269 270 273 275 278 280 283 287 290 291 293 294 295 299 302 302 302 301 303 308 314 317 321
Height
803 801 804 804 806 806 806 808 807 809 809 807 810 811 813 811 810 814 814 821 822 820 841 850 852 867 871 873 875 873 876 877 878 880 881 883 883 884 885 885 887 886 887 887 885 884 882 880 879 876 875 872 870 867 865 862 860 858 856 853 851 849 846 843 841 839 838 837 836 836 836 836 835 833 832 830 828 826 824 822 820 817 815 814 812 810
804 802 805 808 812 811 809 812 811 811 810 811 812 811 818 816 810 815 817 824 823 820 846 858 855 869 875 876 880 877 879 882 883 884 884 886 886 886 888 888 888 888 887 887 886 885 884 882 880 878 876 873 871 869 867 865 863 862 859 857 855 853 850 847 846 845 843 842 842 842 842 841 840 838 835 834 832 831 828 825 823 821 818 817 815 813
805 804 808 815 819 816 814 815 811 811 812 812 815 814 817 817 815 818 820 826 824 822 846 856 852 869 879 878 882 881 884 887 886 887 887 888 889 889 890 890 889 889 888 888 887 886 885 884 882 880 878 876 875 873 870 868 866 864 861 860 859 856 854 852 850 849 848 847 846 845 845 843 842 840 839 838 837 834 831 829 826 824 822 820 818 816
807 807 813 819 820 813 813 817 812 812 816 816 817 816 816 820 816 812 817 828 830 829 842 850 853 870 879 880 884 884 885 888 888 889 890 889 891 892 892 892 891 891 891 890 890 889 887 886 884 883 881 879 877 875 872 870 868 866 865 863 862 859 858 856 854 853 852 851 849 847 846 845 843 842 840 839 837 835 833 831 829 827 826 823 822 820
809 814 819 820 818 812 810 817 816 811 817 820 820 817 815 819 815 812 821 828 832 836 841 844 844 855 870 875 880 886 885 887 889 889 891 891 892 893 892 893 893 893 894 893 892 891 889 888 887 885 884 881 879 877 876 875 872 870 869 866 865 863 860 859 857 855 854 851 849 847 845 843 841 840 838 837 836 836 835 834 832 831 830 828 826 823
812 819 821 816 815 813 809 815 821 815 815 818 818 818 816 815 814 817 824 823 823 829 835 835 824 831 863 874 874 884 885 886 890 889 891 892 892 893 893 894 895 895 895 895 894 893 892 891 889 887 885 883 882 881 880 879 877 874 872 869 867 865 863 861 860 858 855 853 850 847 845 845 844 844 843 843 843 842 840 839 838 836 834 831 829 826
818 820 819 813 812 813 810 816 828 823 814 814 819 823 823 821 818 817 819 818 817 819 827 832 819 822 853 869 873 883 885 886 890 890 891 893 893 894 894 895 896 896 896 896 896 895 893 892 891 889 887 886 885 884 883 881 879 877 874 872 869 868 866 864 863 861 858 856 855 853 853 853 853 853 852 852 851 848 846 844 842 840 837 834 832 830
824 819 816 813 810 812 812 817 830 827 814 815 824 828 827 822 817 816 817 817 817 820 827 833 828 822 832 857 877 881 884 889 890 891 892 892 894 895 895 896 897 897 897 897 896 895 895 894 892 891 890 889 887 886 885 882 880 879 877 875 872 870 869 867 866 864 862 860 859 858 857 857 857 858 857 855 853 851 849 847 844 842 840 837 835 833
831 823 822 818 811 814 820 825 832 830 819 820 829 830 829 826 821 820 819 819 823 825 824 828 834 827 824 854 884 881 880 887 889 892 893 893 895 895 896 897 897 898 898 898 898 896 896 895 894 893 892 891 889 887 886 884 883 881 879 877 875 873 871 870 869 867 866 864 863 861 859 860 860 860 859 857 855 852 850 848 846 844 842 840 838 836
833 829 831 827 822 823 829 833 834 830 823 825 832 829 828 830 828 827 824 821 826 828 823 823 829 826 821 850 881 879 873 877 884 891 892 893 896 895 897 898 897 899 898 898 898 897 897 896 895 894 893 892 890 889 887 886 884 882 880 878 876 875 873 873 871 870 869 867 865 864 862 862 861 860 859 857 855 853 851 849 847 846 844 842 840 838
833 832 833 834 835 835 835 835 834 834 830 829 830 823 823 826 825 829 830 828 829 829 829 828 827 823 819 842 873 876 874 877 882 888 890 892 895 894 896 898 898 899 898 898 898 897 897 896 896 894 893 893 891 890 888 886 885 882 881 880 878 878 876 875 873 871 870 869 867 866 865 864 863 861 860 857 855 854 852 850 849 848 847 845 843 841
831 831 835 838 840 839 835 832 833 836 834 830 825 819 822 826 827 831 832 834 833 828 835 840 840 831 817 836 871 879 880 881 879 883 888 890 893 895 896 897 898 898 898 899 898 898 898 896 896 895 893 893 891 890 889 886 886 884 882 882 880 879 878 876 875 873 872 871 870 869 868 867 866 864 862 860 859 857 855 854 852 850 848 847 845 843
832 835 840 840 839 840 835 828 828 831 830 828 825 822 825 832 836 836 835 842 840 834 843 845 839 833 826 849 880 881 881 883 879 882 886 889 893 895 897 896 898 899 898 899 898 898 898 896 896 896 894 894 892 890 890 888 887 885 884 883 881 880 879 878 877 875 874 873 872 871 870 869 868 867 865 864 863 861 859 857 855 853 850 848 847 844
830 836 841 837 836 842 839 829 825 827 828 827 825 823 827 835 841 841 845 852 846 838 849 849 838 829 828 859 888 883 884 887 884 886 886 889 893 893 895 897 897 899 898 898 899 898 898 898 897 897 895 894 893 892 891 889 888 887 886 884 883 882 881 880 879 877 876 875 874 873 872 871 870 868 867 866 865 864 862 860 858 856 854 852 850 848
824 826 839 843 841 844 845 842 838 837 833 834 838 833 827 829 830 834 839 840 841 844 851 848 837 821 819 858 891 887 887 889 885 889 889 889 893 892 895 897 896 898 898 897 899 898 898 898 897 897 896 895 894 893 892 891 889 888 887 886 885 884 882 881 880 879 878 877 876 875 873 872 871 870 869 868 867 865 863 862 861 859 857 855 853 852
836 832 846 852 850 850 848 850 852 844 834 838 847 838 830 831 830 840 850 848 849 852 849 839 836 846 858 881 897 887 886 891 887 889 891 890 893 893 894 896 896 897 897 898 898 898 899 898 898 897 896 896 895 894 893 892 890 889 888 888 886 885 884 883 882 880 879 879 877 876 875 874 873 871 870 869 868 867 865 863 862 860 859 857 855 853
839 839 852 852 850 855 853 851 854 846 834 837 842 835 840 847 839 841 855 863 859 847 841 833 831 856 871 874 888 889 885 890 889 888 891 890 892 893 893 894 895 896 897 897 898 898 899 898 898 898 897 896 895 894 894 892 892 890 889 889 887 886 885 884 883 882 880 880 878 877 876 875 874 872 871 870 869 867 866 864 863 861 859 858 856 854
835 834 851 855 846 852 858 854 854 854 847 839 838 839 847 851 844 841 843 853 858 846 838 833 830 840 839 845 882 897 885 886 888 887 890 890 890 892 892 892 894 895 896 897 897 898 898 898 898 898 897 897 896 895 894 893 893 891 890 890 888 887 886 885 884 883 881 881 879 878 877 876 875 874 872 871 870 868 867 865 863 862 860 858 856 854
841 828 845 862 852 851 859 852 845 852 855 848 845 849 847 838 837 845 843 842 849 847 838 838 847 845 829 838 873 885 881 884 884 885 888 888 889 889 889 891 893 894 895 896 897 897 897 898 898 897 897 896 896 895 895 894 893 892 891 890 889 888 887 886 885 884 882 881 880 879 878 877 876 875 873 872 870 869 867 865 864 862 860 859 857 855
850 829 834 858 861 856 856 852 846 847 851 851 850 854 855 847 843 847 848 843 843 844 843 843 845 839 837 852 867 871 876 879 879 884 886 884 886 887 887 890 891 892 894 894 895 896 897 897 897 897 897 896 896 895 894 894 893 892 891 890 889 889 887 886 885 884 883 882 881 880 879 878 877 875 874 872 871 869 867 866 864 862 861 859 857 855
854 837 833 853 863 856 855 863 867 864 861 854 849 849 852 856 856 852 855 861 854 843 847 849 833 828 850 871 871 869 873 874 876 881 881 881 884 884 885 887 888 890 891 892 894 895 896 896 896 897 896 895 896 895 894 894 893 892 891 890 889 888 887 886 885 884 884 882 882 881 879 878 877 876 875 873 871 870 868 867 865 863 861 859 858 856
850 842 840 850 856 856 867 882 885 882 880 871 863 860 859 858 854 844 851 876 879 857 855 861 838 831 861 876 871 872 872 871 875 877 878 881 881 882 884 885 886 888 889 891 892 893 894 895 895 896 896 895 895 894 894 893 892 892 891 890 889 888 887 886 885 884 884 882 881 881 879 878 877 876 875 873 872 870 868 867 865 863 861 859 857 856
859 851 847 857 868 873 880 887 887 885 886 882 879 881 879 869 853 837 835 861 882 876 878 883 856 843 870 882 874 876 875 872 873 874 876 879 879 881 883 883 885 887 888 890 891 892 893 893 894 895 895 895 894 894 894 893 892 891 890 890 889 888 887 886 885 885 884 883 881 880 879 878 877 875 874 873 871 870 869 867 865 864 862 859 858 856
859 851 847 858 874 880 882 888 891 891 887 880 881 889 887 877 868 862 862 867 870 868 873 876 855 845 868 882 875 875 877 873 873 873 875 877 879 881 882 883 885 886 887 889 889 891 892 892 893 894 893 894 893 893 893 892 892 891 890 890 888 888 888 886 886 885 883 883 881 880 879 878 877 875 873 873 871 869 868 867 865 864 862 860 858 856
849 847 844 845 853 857 861 866 869 878 885 879 881 894 894 890 886 882 887 882 863 858 861 850 837 845 868 880 876 875 875 872 873 875 875 876 877 879 881 883 884 885 887 888 888 890 891 891 892 892 892 893 892 892 892 891 891 890 889 889 888 888 887 886 886 885 883 883 881 880 880 878 877 875 873 872 871 869 868 866 865 863 861 860 858 856
854 859 851 834 827 825 823 832 846 866 882 880 884 894 894 893 884 869 872 869 853 865 871 841 829 851 873 878 873 873 875 872 873 876 875 876 877 878 881 882 883 885 885 886 887 888 889 889 890 890 891 891 891 891 891 891 891 890 889 889 888 887 887 886 885 884 883 882 881 880 879 878 876 875 873 872 871 869 868 866 864 863 861 859 858 856
868 877 873 852 835 835 838 855 881 887 878 872 879 888 889 893 891 877 868 859 855 872 872 849 848 858 865 872 873 871 874 873 873 875 875 876 877 878 881 881 882 884 883 885 886 886 887 887 888 889 889 889 890 890 890 890 890 889 889 888 888 887 886 886 885 884 883 882 881 880 878 877 876 875 873 872 870 869 867 866 864 862 860 859 857 855
860 863 883 881 871 883 889 893 908 901 880 874 877 880 885 892 895 880 861 858 865 863 849 858 877 865 851 863 870 867 871 872 871 873 872 873 875 877 880 880 881 882 882 884 884 884 885 885 885 887 887 888 889 888 889 889 888 888 888 887 887 886 885 885 884 883 882 881 880 879 878 877 875 874 873 871 870 868 866 865 863 862 860 858 856 855
853 856 890 896 886 904 912 904 908 901 890 891 886 880 885 889 888 877 865 871 871 848 838 865 886 866 849 859 865 865 869 868 867 870 871 873 875 876 878 879 879 880 880 881 881 881 882 882 883 885 885 886 887 887 887 888 887 887 887 886 886 885 885 884 883 882 881 880 879 878 877 876 874 873 872 870 869 867 866 864 862 861 859 857 856 854
860 863 898 902 886 898 907 904 907 900 890 891 887 883 886 886 886 880 875 882 878 861 865 885 888 872 861 861 863 864 867 868 869 872 873 873 873 873 875 876 876 877 878 878 878 878 879 880 881 882 883 884 884 885 885 886 886 886 885 885 885 884 884 883 882 882 880 879 879 877 876 875 873 872 871 869 868 866 865 863 862 860 858 857 855 853
863 868 898 899 879 886 901 905 906 901 895 888 881 884 890 889 891 889 884 890 888 877 882 891 888 877 864 861 864 865 868 872 871 870 871 870 871 872 873 874 874 875 875 875 875 876 877 878 879 880 881 881 881 883 883 884 884 884 884 884 883 883 883 882 881 881 879 879 878 876 875 873 872 871 869 868 867 865 864 862 861 859 857 856 854 852
866 877 899 890 862 868 898 905 898 901 903 892 877 877 886 887 884 882 881 882 876 869 874 880 873 860 852 858 865 865 867 870 867 867 868 868 870 872 870 870 871 871 872 873 873 874 875 876 877 877 878 878 879 880 881 882 883 882 882 883 882 882 881 880 880 879 878 878 876 875 874 872 871 870 868 867 866 864 863 861 860 858 856 855 853 851
880 873 882 881 852 857 898 909 899 895 876 854 851 858 868 876 875 874 876 875 869 865 864 861 851 847 853 860 860 861 865 866 864 865 865 864 867 869 868 868 868 868 869 870 870 872 872 872 874 874 875 876 877 878 879 880 880 881 881 881 880 880 880 879 879 878 877 876 875 874 873 871 870 869 868 866 865 863 862 860 859 858 856 854 853 851
891 870 878 884 852 854 898 908 893 873 836 822 848 865 863 865 865 862 862 863 865 861 855 851 849 852 858 857 852 855 859 860 861 861 861 862 863 865 866 867 866 867 868 868 869 869 869 870 871 872 873 874 875 876 877 878 878 879 879 879 879 879 878 878 877 876 875 874 873 873 871 870 869 868 867 866 864 862 861 859 858 857 855 853 852 850
881 870 885 895 869 866 895 888 855 833 823 836 866 874 866 864 865 861 856 859 865 861 853 853 853 853 855 855 854 854 854 856 860 861 861 862 861 861 863 864 864 866 866 866 867 866 867 868 869 870 871 871 873 874 875 876 877 877 877 877 877 877 877 876 875 875 874 873 872 871 870 869 868 867 866 864 863 861 860 859 857 856 854 853 851 849
871 870 880 891 883 873 875 861 830 817 833 855 868 870 869 867 867 863 852 847 854 858 855 851 849 851 855 857 857 857 858 860 861 860 860 860 859 861 861 860 862 863 863 864 864 864 865 866 866 867 868 869 871 872 873 874 875 875 876 875 875 875 875 875 874 873 872 871 870 870 869 868 867 865 864 863 861 860 859 857 856 855 853 852 850 848
875 871 867 874 884 877 866 857 839 826 831 839 848 859 860 854 855 852 836 826 833 846 851 848 846 850 854 855 857 860 862 861 857 854 855 856 857 858 858 858 860 860 861 862 862 862 863 864 865 866 866 868 869 870 871 872 873 873 874 874 874 874 873 873 872 871 870 869 869 868 867 866 865 864 863 862 860 859 858 856 855 854 852 850 849 847
881 875 862 858 877 888 873 858 847 831 818 819 835 850 850 847 849 847 835 824 824 834 842 841 842 847 850 855 859 859 860 856 848 846 851 854 855 856 856 857 858 858 859 860 860 861 862 862 863 864 865 866 867 868 869 870 871 871 872 871 872 871 871 870 870 869 868 868 867 866 865 864 864 863 861 860 859 858 857 855 854 853 851 849 847 846
882 884 875 863 876 889 871 851 847 832 814 820 839 849 851 850 849 847 837 821 818 832 840 837 840 844 846 852 857 857 856 850 842 843 849 852 852 854 854 855 856 857 857 858 859 860 860 861 862 862 864 865 865 866 868 868 869 869 869 870 869 869 869 868 867 867 866 866 865 864 864 863 862 861 860 859 858 857 855 854 852 851 850 848 846 845
876 879 878 869 874 884 871 857 856 840 824 834 845 847 850 852 849 843 828 811 817 836 840 835 838 842 844 851 856 854 849 843 840 843 847 849 850 851 852 853 853 855 856 856 858 858 859 860 860 860 862 862 863 865 866 866 867 867 867 867 867 866 866 866 865 865 864 864 863 862 862 861 860 859 859 857 856 855 854 853 851 850 848 847 845 843
882 886 890 880 877 884 876 863 858 844 832 842 848 846 850 852 845 834 818 810 822 837 839 837 838 840 844 850 851 847 842 841 842 844 847 849 849 849 850 851 852 853 854 855 856 857 857 858 858 859 860 861 862 863 863 864 865 864 865 865 864 864 864 863 863 863 862 861 861 860 860 859 858 858 857 855 855 853 852 851 850 848 847 845 843 842
877 885 894 889 882 886 884 876 865 843 830 838 846 850 852 843 830 822 820 823 829 832 836 839 837 838 844 845 844 842 839 841 845 846 847 848 848 848 850 850 851 852 853 854 854 855 856 856 857 858 858 859 860 861 861 862 862 862 863 862 861 862 862 861 861 860 860 859 859 858 858 857 856 856 855 854 853 851 850 850 848 847 846 844 842 840
860 861 871 882 883 884 887 882 858 829 824 837 843 847 848 833 817 816 824 831 832 831 835 837 835 839 841 839 841 843 841 842 845 845 847 848 847 848 848 848 850 850 850 852 852 853 854 854 855 855 856 857 858 858 859 860 859 860 860 859 859 860 859 859 858 857 857 857 856 856 856 855 855 854 852 852 851 849 848 848 847 846 844 842 841 839
851 845 849 864 869 865 864 857 833 816 826 836 827 825 831 825 820 823 824 825 831 833 834 833 833 838 838 836 839 841 841 843 844 843 846 847 846 847 847 847 848 848 848 850 850 851 852 852 852 853 854 855 856 856 857 857 856 857 857 856 857 858 856 857 856 855 855 854 853 854 853 852 852 851 850 850 849 847 847 845 844 844 842 841 839 837
839 841 841 845 849 846 838 830 824 827 838 835 822 819 824 824 826 830 825 822 827 831 833 832 830 834 837 836 836 838 839 841 841 841 843 843 843 845 845 844 845 846 846 848 848 849 850 849 850 851 851 852 853 853 854 854 854 854 854 853 855 855 854 854 853 852 852 852 851 851 850 850 850 849 848 848 846 845 845 843 842 841 840 839 838 835
846 853 847 839 840 839 828 822 828 835 836 832 826 825 827 826 828 831 828 825 826 826 829 830 827 829 834 835 835 837 837 837 838 839 840 841 841 842 842 842 843 843 844 845 846 846 847 847 848 849 848 849 850 850 850 851 851 851 851 852 852 852 851 851 850 850 850 849 849 849 848 847 847 846 846 846 844 844 843 841 841 839 838 837 836 834
850 853 846 839 837 831 817 817 829 830 827 831 830 826 827 828 828 829 828 826 827 828 829 829 828 829 832 833 834 834 833 835 837 836 838 839 839 839 839 840 840 841 841 842 843 843 844 845 845 845 845 845 846 847 847 848 848 848 849 849 849 849 848 848 847 847 847 846 846 846 845 845 844 844 843 843 842 841 840 839 839 837 836 835 833 832
841 845 842 838 837 829 816 816 829 832 829 832 831 826 825 824 824 828 829 827 829 830 829 829 830 831 831 831 832 832 831 833 834 834 835 837 836 836 837 837 837 838 839 839 840 841 841 842 841 841 842 842 842 844 844 844 845 846 846 846 847 846 846 845 845 844 844 844 844 843 843 842 842 841 840 840 839 839 838 837 836 835 834 833 832 830
843 842 838 836 835 831 820 816 824 827 823 823 825 824 823 820 821 825 826 827 829 828 828 829 829 829 829 829 830 831 830 830 832 832 833 833 833 834 834 833 834 836 836 837 838 838 838 838 838 838 838 838 839 840 840 841 842 842 843 844 843 843 843 842 842 842 841 841 841 840 840 840 839 839 838 837 837 836 835 835 834 833 832 831 830 829
841 833 836 838 830 821 814 810 812 812 807 807 813 816 817 818 820 822 823 825 826 825 825 827 826 827 829 827 827 830 829 827 829 830 830 830 831 831 831 831 832 832 833 835 835 835 835 835 835 836 835 835 837 837 837 838 839 839 840 840 840 840 840 839 839 839 838 838 838 838 838 837 837 836 836 834 834 833 832 832 832 831 830 828 828 827
826 817 823 825 813 805 804 805 808 808 804 805 810 812 813 816 818 819 820 820 820 821 823 824 824 825 825 825 825 827 826 825 826 827 828 827 827 827 828 829 829 829 830 831 831 831 832 832 832 833 832 832 833 834 834 835 836 836 837 837 837 837 837 836 836 835 835 835 835 835 835 835 834 834 833 832 832 831 829 829 828 828 828 827 826 825